loading
|

THOR ABLESTAR DEB, 336

Orbit data source: Space-Track

THOR ABLESTAR DEB, 336 is space debris in LEO originally from a launch on Thu, 29 Jun 1961 UTC launched from the Air Force Eastern Test Range (AFETR). Debris objects in space refer to the collection of defunct objects orbiting the Earth. Examples of debris include non-operational satellites, rocket bodies, and fragments generated from explosions, collisions, or faulty payload assembly.

Loading next visibility...
Loading greatness...
THOR ABLESTAR DEB details
Identifier
336, 1961-015DN
Orbit
LEO
Last TLE update20 hours ago
Origin
Flag of USUSAF SSD (US)
ManufacturerUnknown
Mission statusUnknown
MissionUnknown
Bus & MotorUnknown
MassUnknown
Launch date (UTC)
1961-06-29 (63 years ago)
Launch vehicleUnknown
Launch site
Air Force Eastern Test Range (AFETR)
Object type
Payload
Rocket body
Debris
Radar Cross SectionSmall (<0.1 m²)

Expand to show TLE details & history

TLE from 20 hours ago
0 THOR ABLESTAR DEB
1 00336U 61015DN  24258.43500494  .00000551  00000-0  70257-3 0  9990
2 00336  67.0282 248.0206 0084203 236.7069 287.4385 13.68910799151480
Epoch: 2024-09-14T10:26Z
Definitive object data (Epoch: 2024-09-14T10:26:24.426Z)
Latitude15.40534°
Longitude-89.14653°
Altitude986.719 km
Speed7.369 km/s
True Right ascension04h 05m 23s
True Declination15° 19' 13"
Sunlit
Object was in daylight at TLE epoch
Predictive object data (real-time)
Latitude-8.56344°
Longitude91.92458°
Altitude1,032.653 km
Speed7.323 km/s
Apparent Right ascension14h 16m 42s
Apparent Declination-27° 31' 42"
Sunlit
Object is in daylight
Predictive observer data (real-time)
Local Sidereal Time23:16:25
Azimuth274.316° WNW
Elevation-50.98°
Doppler factor1
Orbital elements
Apogee1,064.01 km
Perigee939.727 km
Semi-major axis7,380.006 km
Eccentricity0.0084203
Inclination67.0282°
RAAN248.0206°
Arg. of periapsis236.7069°
True anomaly286.51508°
Mean anomaly287.4385°
Eccentric anomaly286.97708°
Mean motion3.4234 °/min
BSTAR0.00070257
Period105.16 mins
No data available

THOR ABLESTAR DEB Visibility forecast

Observer location: 39.9160978°, -105.1181434

THOR ABLESTAR DEB is not visible in the next 10 days
Span
Click to sort rows by Start time (UTC) header in descending order
Start Az.
Max El. time (UTC)
Max El. Az.
Max El.
End time (UTC)
End Az.